This demonstration page uses our WeatherBlox Daily Observations layout. Learn more.

Left ArrowRight Arrow

39.92423, -83.80882

Hourly Observations for June 17, 2022

Temp ( °F °C ) Dew Point ( °F °C ) Humidity (%) Winds ( mph kmh ) Pressure ( in mb ) Visibility ( mi km ) Precip ( " mm )
12:56 am 00:56 Clear 80 26.7 80 26.7 100 100 SW 8 13 29.97 1015 10 16 0.00 0.00
1:56 am 01:56 Clear 79 26 N/A N/A SW 8 13 29.97 1015 10 16 0.00 0.00
2:56 am 02:56 Clear 79 26 N/A N/A SW 9 15 29.96 1015 10 16 0.00 0.00
3:56 am 03:56 Clear 79 26 N/A N/A WSW 10 17 29.95 1014 10 16 0.00 0.00
4:56 am 04:56 Clear 79 26 N/A N/A WSW 8 13 29.94 1014 10 16 0.00 0.00
5:56 am 05:56 Clear 75 24 N/A N/A W 7 11 29.95 1014 10 16 0.00 0.00
6:56 am 06:56 Sunny 75 24 N/A N/A WSW 7 11 29.95 1014 8 13 0.00 0.00
7:56 am 07:56 Sunny 79 26.1 79 26.1 100 100 W 8 13 29.95 1014 10 16 0.00 0.00
8:56 am 08:56 Sunny 82 27.8 71 21.7 69 69 W 14 22 29.96 1015 10 16 0.00 0.00
9:56 am 09:56 Mostly Cloudy 82 27.8 68 20 63 63 WNW 12 19 29.96 1015 10 16 0.00 0.00
10:56 am 10:56 Cloudy 83 28.3 64 17.8 53 53 NW 12 19 29.97 1015 10 16 0.00 0.00
11:56 am 11:56 Cloudy 83 28.3 61 16.1 48 48 NW 15 24 29.97 1015 10 16 0.00 0.00
12:56 pm 12:56 Sunny 84 28.9 60 15.6 44 44 NW 17 28 29.96 1015 10 16 0.00 0.00
1:56 pm 13:56 Sunny 85 29.4 60 15.6 43 43 WNW 17 28 29.97 1015 10 16 0.00 0.00
2:56 pm 14:56 Sunny 86 30 58 14.4 39 39 W 22 35 29.93 1014 10 16 0.00 0.00
3:56 pm 15:56 Sunny 88 31.1 59 15 38 38 WNW 13 20 29.91 1013 10 16 0.00 0.00
4:56 pm 16:56 Sunny 87 30.6 55 12.8 34 34 NW 16 26 29.89 1012 10 16 0.00 0.00
5:56 pm 17:56 Sunny 85 29.4 58 14.4 40 40 NNW 15 24 29.89 1012 10 16 0.00 0.00
6:56 pm 18:56 Sunny 83 28.3 57 13.9 41 41 NNW 10 17 29.90 1013 10 16 0.00 0.00
7:56 pm 19:56 Sunny 81 27.2 54 12.2 39 39 NNW 13 20 29.92 1013 10 16 0.00 0.00
8:56 pm 20:56 Sunny 77 25 52 11.1 42 42 NNW 12 19 29.93 1014 10 16 0.00 0.00
9:56 pm 21:56 Clear 73 22.8 52 11.1 48 48 NNW 12 19 29.95 1014 10 16 0.00 0.00
10:56 pm 22:56 Clear 71 21.7 51 10.6 49 49 NW 9 15 29.96 1015 10 16 0.00 0.00
11:56 pm 23:56 Clear 69 20.6 51 10.6 53 53 NNW 13 20 29.97 1015 10 16 0.00 0.00

Powered by AerisWeather